Regional Weather Roundup
Issued by NWS

Home | Current Version | Previous Version | Graphics & Text | Print | Product List | Glossary On
Versions: 1 2 3 4 5 6 7 8 9 10 11 12 13 14 15 16 17 18 19 20 21 22 23 24 25 26 27 28 29 30 31 32 33 34 35 36 37 38 39 40 41 42 43 44 45 46 47 48 49 50
000
ASUS43 KFSD 291710
RWRSD

WEATHER ROUNDUP FOR SOUTH DAKOTA
NATIONAL WEATHER SERVICE SIOUX FALLS SD
1200 PM CDT SAT AUG 29 2015

NOTE: "FAIR" INDICATES FEW OR NO CLOUDS BELOW 12,000 FEET WITH NO
SIGNIFICANT WEATHER AND/OR OBSTRUCTIONS TO VISIBILITY.


SDZ001>005-009-010-012>017-291800-
NORTHWEST AND NORTH CENTRAL SOUTH DAKOTA

CITY           SKY/WX    TMP DP  RH WIND       PRES   REMARKS
BUFFALO          N/A     86  54  33 S10       29.94F
FAITH            N/A     81  58  45 S12       30.00F
MOBRIDGE       SUNNY     79  65  62 SE6       29.95F
$$

SDZ012>016-024>037-041>051-057-063-072>074-291800-
SOUTHWEST AND SOUTH CENTRAL SOUTH DAKOTA

CITY           SKY/WX    TMP DP  RH WIND       PRES   REMARKS
RAPID CTY ARPT SUNNY     81  60  48 SE6       30.05F
PIERRE         SUNNY     80  61  52 SW6       29.99S
CUSTER         SUNNY     81  42  25 SW13G18   30.24S
ELLSWORTH AFB  SUNNY     82  59  45 S7        30.05S
PHILIP         SUNNY     82  61  48 CALM      30.00F
PINE RIDGE     SUNNY     84  52  33 SW5       30.11F
WINNER         FAIR      78  63  59 S6        30.04S
$$

SDZ004>011-016>023-039-040-291800-
NORTHEAST SOUTH DAKOTA

CITY           SKY/WX    TMP DP  RH WIND       PRES   REMARKS
ABERDEEN       SUNNY     74  66  76 S13       29.98S
WATERTOWN      MOSUNNY   71  63  75 S12       30.04S
BROOKINGS      SUNNY     70  61  73 S7        30.08F
SISSETON         N/A     78  65  63 S9        29.97F
$$

SDZ017-020-022-023-036>040-048>070-291800-
SOUTHEAST SOUTH DAKOTA

CITY           SKY/WX    TMP DP  RH WIND       PRES   REMARKS
SIOUX FALLS    MOSUNNY   66  59  78 VRB6      30.08S
HURON          SUNNY     74  66  76 S13       30.01F
CHAMBERLAIN    SUNNY     75  66  73 S6        30.03F
MITCHELL       MOSUNNY   74  66  76 S8        30.05F
YANKTON        MOSUNNY   63  59  88 S3        30.07S
$$

ABBREVIATIONS USED IN REMARKS
   TC - TEMPERATURE IN CELSIUS
  WCI - WIND CHILL INDEX
   HX - HEAT INDEX
  VSB - VISIBILITY



USA.gov is the U.S. government's official web portal to all federal, state and local government web resources and services.